[[{"header":{"parameterUnit":"m.s-1","parameterCategory":2,"la1":30.2991,"la2":30.254,"lo1":-89.0895,"lo2":-89.0444,"dy":0.0017,"dx":0.0017,"nx":28,"ny":28,"refTime":"2026-02-03T03:00:00:Z","depth":"0","parameterNumber":2,"parameterNumberName":"U-component_of_CURRENTS"},"data":[0,0,0,0,0,0,0,0,0,0,0,0,0,0,0,0,0,0,0,0,0,0,0,0,0,0,0,0,0,0,0,0,0,0,0,0,0,0,0,0,0,0,0,0,0,0,0,0,0,0,0,0,0,0,0,0,0,0,0.0097,0.0095,0,0.0028,0.0028,0.0028,0.0081,0.0083,0.0084,0.0085,0.0107,0.0106,0.0105,0,0,0,0,0,0,0,0,0,0,0,0,0,0.0233,0.0231,0.0097,0.0095,0.0093,0.0028,0.0028,0.0028,0.0081,0.0083,0.0084,0.0086,0.0107,0.0106,0.0105,0,0,0,0,0,0,0,0,0,0,0,0,0,0.018,0.0231,0.0097,0.0104,0.0103,0.0028,0.0028,0.0028,0.0081,0.0083,0.0085,0.0087,0.0107,0.0106,0.0105,0.0059,0,0,0.0102,0.0102,0,0,0,0,0,0,0,0,0.0183,0.0177,0.0105,0.0103,0.0102,0.0056,0.0083,0.0039,0.008,0.0101,0.0085,0.0088,0.0089,0.009,0.0087,0.006,0.0061,0.0102,0.0101,0.0101,0.0101,0,0,0,0,0,0,0,0.0187,0.0179,0.0081,0.0102,0.0101,0.0095,0.0092,0.0075,0.0095,0.0099,0.01,0.0075,0.0091,0.0087,0.0088,0.0062,0.0102,0.0101,0.0101,0.01,0.0144,0.0145,0,0,0,0,0,0,0.0173,0.0183,0.0082,0.0077,0.0136,0.0091,0.0087,0.0078,0.0093,0.0093,0.0073,0.0077,0.0088,0.0089,0.0089,0.0128,0.0101,0.01,0.0099,0.0142,0.0144,0.0146,0,0,0,0,0,0,0.0177,0.0166,0.0085,0.0119,0.0107,0.0085,0.0075,0.0075,0.009,0.007,0.0075,0.0089,0.009,0.009,0.0122,0.0126,0.01,0.0099,0.014,0.0143,0.0145,0.0147,0,0,0,0,0,0,0.0181,0.0168,0.017,0.0119,0.0104,0.0084,0.0071,0.0072,0.0064,0.007,0.0084,0.0087,0.0091,0.0123,0.0121,0.0124,0.0098,0.0138,0.0141,0.0144,0.0145,0.0149,0.0153,0,0,0,0,0,0.0187,0.0189,0.0171,0.0159,0.0104,0.0084,0.0081,0.0077,0.0063,0.0094,0.0103,0.0088,0.0143,0.0124,0.012,0.0123,0.0136,0.014,0.0144,0.0143,0.0149,0.0153,0,0,0,0,0,0,0.0288,0.0191,0.0172,0.0156,0.0136,0.0091,0.0108,0.0078,0.0103,0.011,0.0101,0.0106,0.0145,0.0136,0.0115,0.0153,0.0139,0.0143,0.014,0.0145,0.0149,0.0158,0.0097,0,0,0,0,0,0.0293,0.0265,0.0193,0.0198,0.0183,0.0141,0.013,0.0114,0.0109,0.0122,0.0131,0.0141,0.0151,0.0152,0.0177,0.0172,0.0167,0.0179,0.0184,0.0187,0.0197,0.0197,0.0201,0.0159,0.0159,0.0159,0,0,0.0319,0.0281,0.0256,0.0214,0.0202,0.0191,0.0148,0.0138,0.0142,0.0116,0.0166,0.0165,0.0162,0.0188,0.02,0.0178,0.0197,0.0192,0.0194,0.0203,0.0201,0.0205,0.0208,0.0162,0.0161,0.0161,0,0,0.0389,0.0344,0.0343,0.0314,0.0275,0.0244,0.024,0.0201,0.0211,0.0234,0.0215,0.0221,0.0252,0.0234,0.0227,0.0264,0.0236,0.0269,0.0271,0.0271,0.0273,0.0275,0.0266,0.0268,0.0251,0.0251,0.0251,0,0.0422,0.04,0.0353,0.0355,0.0312,0.0271,0.0255,0.0265,0.025,0.0223,0.0278,0.028,0.0279,0.0247,0.0271,0.027,0.0264,0.0241,0.0273,0.0275,0.0277,0.0267,0.0269,0.0251,0.0251,0.0251,0.0251,0,0.0479,0.045,0.046,0.0427,0.0409,0.038,0.0348,0.0358,0.0357,0.0322,0.0333,0.0356,0.0349,0.034,0.0321,0.0306,0.0296,0.0289,0.0249,0.0281,0.0269,0.0271,0.0252,0.0252,0.0252,0.0251,0,0,0.0511,0.0486,0.0475,0.0446,0.0404,0.0381,0.0408,0.0354,0.0336,0.0376,0.0346,0.0383,0.0368,0.0364,0.0332,0.0316,0.0322,0.0305,0.0305,0.0279,0.0314,0.026,0.0256,0.0312,0.0313,0.0313,0.0296,0,0.0538,0.0504,0.0507,0.048,0.0424,0.04,0.0425,0.0385,0.0379,0.0362,0.0346,0.0335,0.0384,0.0364,0.0377,0.0357,0.0328,0.0327,0.0304,0.0304,0.0236,0.0257,0.0262,0.0243,0.0297,0.0297,0.0297,0,0.0572,0.0499,0.0451,0.0411,0.0398,0.0424,0.0369,0.0379,0.0341,0.0347,0.0343,0.032,0.0328,0.0351,0.0395,0.0397,0.036,0.0335,0.0333,0.0285,0.0253,0.0225,0.0244,0.0178,0.0299,0.0299,0.0299,0,0.0526,0.0482,0.0417,0.0385,0.0343,0.0363,0.0374,0.035,0.035,0.0303,0.0311,0.0319,0.0348,0.0359,0.0382,0.0378,0.0397,0.0382,0.0282,0.0278,0.0281,0.0275,0.0219,0.0346,0.0346,0.0346,0.0346,0,0.0534,0.0465,0.0395,0.0336,0.0295,0.0308,0.0323,0.0327,0.0338,0.0321,0.0308,0.0343,0.0352,0.0365,0.037,0.0379,0.0416,0.0291,0.0272,0.0281,0.0276,0.0217,0.0182,0.0345,0.0346,0.0346,0.0346,0,0.0535,0.0473,0.0396,0.0318,0.028,0.0279,0.0325,0.0341,0.0361,0.0352,0.0335,0.0367,0.039,0.037,0.0353,0.0367,0.0306,0.029,0.0296,0.0277,0.0121,0.0086,0.0023,0.0032,0.0198,0.0196,0.0195,0,0.0533,0.0464,0.0357,0.0323,0.0312,0.0293,0.0287,0.033,0.0349,0.0393,0.0387,0.0367,0.0375,0.0375,0.0328,0.0278,0.0216,0.0211,0.0189,0.0113,0.0062,0.0046,0.006,0.0198,0.0196,0.0196,0.0195,0,0.0472,0.0458,0.0397,0.0306,0.0305,0.0303,0.0309,0.0316,0.0358,0.0388,0.0416,0.0407,0.0365,0.0341,0.0243,0.021,0.0183,0.0185,0.0121,0.0065,0.0036,0.0036,0.02,0.0187,0.0188,0.0188,0.0189,0.0189,0.0438,0.0445,0.0375,0.0333,0.0303,0.0315,0.0327,0.0356,0.0389,0.0406,0.0425,0.0436,0.0354,0.0239,0.0188,0.0048,0.0067,0.0007,-0.0026,-0.0033,-0.0035,0.0094,0.0046,0.0045,0.0045,0.0045,0.0045,0,0.0376,0.0416,0.0377,0.0351,0.0331,0.0313,0.0316,0.0343,0.0378,0.0406,0.0429,0.0377,0.0284,0.0157,-0.0026,-0.0129,-0.0099,-0.0178,-0.0177,-0.0147,-0.0019,-0.0032,-0.0116,-0.0116,-0.0116,-0.0116,-0.0115,-0.0115,0.0366,0.0349,0.0365,0.0337,0.0317,0.0315,0.0325,0.0355,0.0388,0.0418,0.0409,0.0419,0.0273,-0.011,-0.0336,-0.0348,-0.0362,-0.0367,-0.0373,-0.0286,-0.027,-0.0255,-0.0276,-0.0409,-0.041,-0.0448,-0.0449,-0.0449]},{"header":{"parameterUnit":"m.s-1","parameterCategory":2,"la1":30.2991,"la2":30.254,"lo1":-89.0895,"lo2":-89.0444,"dy":0.0017,"dx":0.0017,"nx":28,"ny":28,"refTime":"2026-02-03T03:00:00:Z","depth":"0","parameterNumber":3,"parameterNumberName":"V-component_of_CURRENTS"},"data":[0,0,0,0,0,0,0,0,0,0,0,0,0,0,0,0,0,0,0,0,0,0,0,0,0,0,0,0,0,0,0,0,0,0,0,0,0,0,0,0,0,0,0,0,0,0,0,0,0,0,0,0,0,0,0,0,0,0,0.0497,0.0497,0,0.0486,0.0485,0.0484,0.0443,0.0442,0.0442,0.0442,0.0557,0.056,0.0563,0,0,0,0,0,0,0,0,0,0,0,0,0,0.0471,0.0471,0.0497,0.0497,0.0498,0.0486,0.0485,0.0484,0.0443,0.0442,0.0442,0.0442,0.0556,0.056,0.0564,0,0,0,0,0,0,0,0,0,0,0,0,0,0.0467,0.0471,0.0497,0.0481,0.048,0.0486,0.0485,0.0484,0.0443,0.0442,0.0442,0.0442,0.0554,0.0559,0.0564,0.0605,0,0,0.058,0.0582,0,0,0,0,0,0,0,0,0.0467,0.0467,0.0483,0.0482,0.0481,0.0471,0.0518,0.0533,0.0443,0.045,0.0442,0.0441,0.0545,0.055,0.0538,0.0611,0.0616,0.058,0.0583,0.0585,0.0587,0,0,0,0,0,0,0,0.0468,0.0467,0.0486,0.0483,0.0482,0.0471,0.0469,0.052,0.0497,0.0449,0.0448,0.0457,0.0544,0.0533,0.0541,0.0617,0.058,0.0584,0.0588,0.059,0.0761,0.0762,0,0,0,0,0,0,0.0484,0.0468,0.0486,0.0486,0.048,0.0472,0.047,0.0469,0.0494,0.0498,0.0458,0.0456,0.0525,0.0535,0.0545,0.0578,0.0585,0.059,0.0593,0.076,0.0761,0.0763,0,0,0,0,0,0,0.0483,0.0485,0.0487,0.0482,0.0483,0.0474,0.0473,0.0469,0.0462,0.05,0.0505,0.0456,0.0525,0.0538,0.0603,0.0583,0.0592,0.0597,0.0758,0.076,0.0762,0.0656,0,0,0,0,0,0,0.0482,0.0484,0.0481,0.0483,0.0484,0.0495,0.0474,0.047,0.0472,0.0469,0.0502,0.051,0.0525,0.0595,0.0608,0.059,0.0601,0.0756,0.0759,0.0761,0.0657,0.0654,0.0651,0,0,0,0,0,0.0481,0.0437,0.0481,0.0483,0.0482,0.0496,0.0494,0.0482,0.0473,0.0472,0.0502,0.0509,0.0622,0.0601,0.0615,0.0598,0.0754,0.0758,0.0761,0.0659,0.0655,0.0651,0,0,0,0,0,0,0.041,0.0431,0.0477,0.0443,0.0492,0.0492,0.0505,0.0489,0.0506,0.0505,0.0535,0.0547,0.0594,0.0633,0.0609,0.0664,0.0688,0.0694,0.0605,0.0602,0.0599,0.0624,0.0605,0,0,0,0,0,0.0409,0.039,0.0444,0.043,0.0481,0.0507,0.051,0.0491,0.0512,0.0515,0.0551,0.0591,0.0619,0.064,0.0686,0.0723,0.0749,0.0726,0.0723,0.072,0.0755,0.0764,0.0763,0.0774,0.0774,0.0774,0,0,0.0356,0.0393,0.0366,0.0418,0.048,0.0499,0.0507,0.0513,0.0503,0.0533,0.0564,0.0593,0.0634,0.0661,0.0685,0.0687,0.0726,0.0724,0.072,0.0758,0.0767,0.0765,0.0764,0.0777,0.0776,0.0776,0,0,0.0315,0.0337,0.0353,0.039,0.0475,0.0479,0.0489,0.052,0.0534,0.057,0.0572,0.0601,0.0675,0.0671,0.0682,0.0707,0.0716,0.0717,0.0707,0.0712,0.071,0.0709,0.0702,0.0701,0.0704,0.0704,0.0704,0,0.0322,0.0304,0.0357,0.0416,0.0428,0.0478,0.0491,0.0508,0.0531,0.0551,0.0584,0.0655,0.0679,0.0676,0.0675,0.0694,0.0702,0.0696,0.0702,0.0702,0.0702,0.0696,0.0697,0.0699,0.07,0.07,0.0701,0,0.0292,0.0297,0.0326,0.0409,0.042,0.0429,0.048,0.0493,0.0525,0.0538,0.0595,0.0641,0.0693,0.0672,0.0683,0.0681,0.0686,0.0692,0.0693,0.0693,0.0688,0.069,0.0692,0.0694,0.0695,0.0697,0,0,0.0297,0.0314,0.0323,0.0349,0.0401,0.0402,0.042,0.0451,0.0449,0.0523,0.0544,0.0599,0.0654,0.0677,0.0681,0.0667,0.0647,0.0681,0.0683,0.0644,0.065,0.0568,0.0563,0.064,0.0641,0.0641,0.0629,0,0.0315,0.0343,0.0331,0.0324,0.0353,0.037,0.0371,0.0378,0.0426,0.046,0.0533,0.0564,0.0648,0.0647,0.0675,0.0674,0.0657,0.0651,0.0687,0.0689,0.0589,0.0564,0.0602,0.0588,0.0631,0.0632,0.0632,0,0.033,0.032,0.031,0.0285,0.0308,0.0296,0.0291,0.0281,0.033,0.0387,0.0473,0.0532,0.0594,0.0626,0.0708,0.0704,0.0694,0.0671,0.067,0.0646,0.0612,0.0609,0.0591,0.0775,0.0636,0.0636,0.0635,0,0.0311,0.0317,0.0283,0.0275,0.0249,0.0256,0.0247,0.0267,0.028,0.0332,0.0365,0.0484,0.0537,0.06,0.0666,0.0677,0.0697,0.0703,0.0609,0.0603,0.0676,0.0673,0.0824,0.0703,0.0703,0.0704,0.0704,0,0.0339,0.0284,0.0273,0.025,0.0199,0.021,0.0205,0.0203,0.0242,0.0255,0.0346,0.0414,0.0529,0.0582,0.064,0.0667,0.0712,0.0617,0.0597,0.0636,0.063,0.0828,0.088,0.0703,0.0703,0.0703,0.0703,0,0.0298,0.0287,0.0247,0.0223,0.0199,0.0169,0.0189,0.0187,0.0216,0.0236,0.0251,0.0368,0.0429,0.0492,0.0537,0.0605,0.0676,0.0576,0.0607,0.0589,0.0672,0.0714,0.0772,0.0843,0.0498,0.0496,0.0494,0,0.0257,0.0242,0.0222,0.0191,0.0182,0.0156,0.0135,0.0171,0.0194,0.0237,0.0251,0.0277,0.0343,0.0402,0.0448,0.0471,0.0576,0.0496,0.0516,0.0687,0.0721,0.0743,0.0803,0.057,0.0569,0.0568,0.0567,0,0.0177,0.0204,0.0187,0.0141,0.0132,0.0112,0.012,0.0122,0.0149,0.0192,0.0232,0.0252,0.0275,0.0353,0.0338,0.0375,0.0621,0.0472,0.0673,0.0806,0.0824,0.0879,0.0561,0.056,0.0561,0.0561,0.0561,0.0562,0.0146,0.0136,0.0162,0.0098,0.0087,0.0071,0.0072,0.0096,0.0118,0.0144,0.0198,0.0219,0.0326,0.0325,0.0379,0.0557,0.0503,0.0649,0.0688,0.0697,0.0769,0.0404,0.0354,0.0354,0.0353,0.0353,0.0353,0,0.0129,0.0121,0.0087,0.0079,0.0071,0.0057,0.0046,0.0066,0.0088,0.0103,0.0149,0.0219,0.0392,0.0511,0.0743,0.0845,0.0898,0.0914,0.1052,0.1104,0.083,0.0843,0.087,0.0869,0.0869,0.0869,0.0869,0.0869,0.0148,0.0119,0.0087,0.0051,0.0035,0.0037,0.0027,0.0039,0.0059,0.01,0.0114,0.0134,0.0439,0.0905,0.1249,0.125,0.1432,0.1314,0.1407,0.134,0.1323,0.1308,0.1341,0.1471,0.1471,0.1733,0.1735,0.1737]}],[{"header":{"parameterUnit":"m.s-1","parameterCategory":2,"la1":30.2991,"la2":30.254,"lo1":-89.0895,"lo2":-89.0444,"dy":0.0017,"dx":0.0017,"nx":28,"ny":28,"refTime":"2026-02-03T03:00:00:Z","depth":"2","parameterNumber":2,"parameterNumberName":"U-component_of_CURRENTS"},"data":[0,0,0,0,0,0,0,0,0,0,0,0,0,0,0,0,0,0,0,0,0,0,0,0,0,0,0,0,0,0,0,0,0,0,0,0,0,0,0,0,0,0,0,0,0,0,0,0,0,0,0,0,0,0,0,0,0,0,-0.2557,-0.2561,0,-0.2765,-0.2766,-0.2768,-0.2745,-0.2743,-0.274,-0.2738,-0.2657,-0.2657,-0.2657,0,0,0,0,0,0,0,0,0,0,0,0,0,-0.2252,-0.2256,-0.2557,-0.2561,-0.2564,-0.2765,-0.2766,-0.2768,-0.2745,-0.2743,-0.274,-0.2737,-0.2657,-0.2657,-0.2656,0,0,0,0,0,0,0,0,0,0,0,0,0,-0.2404,-0.2258,-0.2557,-0.2586,-0.2591,-0.2764,-0.2766,-0.2768,-0.2746,-0.2743,-0.2739,-0.2736,-0.2657,-0.2657,-0.2656,-0.2723,0,0,-0.2656,-0.2656,0,0,0,0,0,0,0,0,-0.2395,-0.2413,-0.2578,-0.2584,-0.2591,-0.2736,-0.263,-0.2743,-0.2747,-0.2675,-0.2738,-0.2734,-0.2666,-0.2665,-0.27,-0.2719,-0.2716,-0.2656,-0.2656,-0.2656,-0.2656,0,0,0,0,0,0,0,-0.2384,-0.2405,-0.2628,-0.2582,-0.259,-0.2627,-0.2643,-0.2652,-0.2673,-0.2681,-0.2683,-0.2725,-0.2665,-0.27,-0.2697,-0.2715,-0.2656,-0.2656,-0.2656,-0.2656,-0.2658,-0.2658,0,0,0,0,0,0,-0.2381,-0.2395,-0.2621,-0.2635,-0.2495,-0.2636,-0.2653,-0.2683,-0.2679,-0.2681,-0.2728,-0.2724,-0.2702,-0.2697,-0.2693,-0.2659,-0.2656,-0.2656,-0.2656,-0.2658,-0.2658,-0.2658,0,0,0,0,0,0,-0.2373,-0.2398,-0.2613,-0.2529,-0.256,-0.2645,-0.2679,-0.2689,-0.2687,-0.272,-0.2713,-0.2712,-0.2699,-0.2694,-0.2683,-0.2659,-0.2656,-0.2656,-0.2658,-0.2658,-0.2658,-0.2662,0,0,0,0,0,0,-0.2363,-0.2394,-0.2372,-0.2529,-0.2565,-0.2698,-0.2684,-0.2696,-0.2727,-0.2721,-0.2705,-0.2697,-0.2696,-0.2683,-0.2682,-0.2659,-0.2656,-0.2658,-0.2658,-0.2658,-0.2661,-0.2662,-0.2663,0,0,0,0,0,-0.2351,-0.2388,-0.2369,-0.2396,-0.2546,-0.27,-0.2721,-0.2762,-0.2729,-0.2741,-0.2725,-0.2696,-0.2682,-0.2684,-0.2683,-0.2659,-0.2658,-0.2658,-0.2658,-0.2661,-0.2662,-0.2663,0,0,0,0,0,0,-0.2238,-0.2395,-0.2377,-0.2448,-0.2542,-0.27,-0.2729,-0.2749,-0.2754,-0.2723,-0.2715,-0.2709,-0.2687,-0.2682,-0.2683,-0.266,-0.2658,-0.2659,-0.2661,-0.2661,-0.2662,-0.2648,-0.2656,0,0,0,0,0,-0.2204,-0.2276,-0.2403,-0.2457,-0.2498,-0.2591,-0.2641,-0.2677,-0.2735,-0.2733,-0.2727,-0.2709,-0.2702,-0.2684,-0.2687,-0.2685,-0.2662,-0.2663,-0.2663,-0.2664,-0.2652,-0.2632,-0.2629,-0.2659,-0.2659,-0.2659,0,0,-0.2196,-0.2275,-0.232,-0.2437,-0.2506,-0.2583,-0.261,-0.2701,-0.2732,-0.2722,-0.2724,-0.2714,-0.2704,-0.2702,-0.2688,-0.2682,-0.264,-0.2664,-0.2665,-0.2652,-0.2632,-0.2629,-0.2626,-0.2659,-0.2659,-0.2659,0,0,-0.2255,-0.2259,-0.2343,-0.2398,-0.2504,-0.2568,-0.2581,-0.2702,-0.2704,-0.2739,-0.272,-0.2699,-0.2706,-0.2694,-0.2687,-0.2692,-0.265,-0.2677,-0.2661,-0.2642,-0.2639,-0.2636,-0.2587,-0.258,-0.2671,-0.2671,-0.2671,0,-0.2229,-0.2313,-0.2388,-0.2454,-0.249,-0.255,-0.2612,-0.2654,-0.2743,-0.2737,-0.2727,-0.2722,-0.2704,-0.269,-0.2682,-0.2689,-0.2662,-0.2659,-0.2642,-0.2638,-0.2635,-0.2586,-0.2578,-0.2671,-0.2671,-0.2671,-0.2671,0,-0.2371,-0.2371,-0.2427,-0.2509,-0.2555,-0.2626,-0.2688,-0.2696,-0.2693,-0.2732,-0.2717,-0.2719,-0.2701,-0.2695,-0.2686,-0.2651,-0.2632,-0.265,-0.2638,-0.2632,-0.2581,-0.2572,-0.2671,-0.2671,-0.2671,-0.2671,0,0,-0.2473,-0.2521,-0.2521,-0.2501,-0.2567,-0.2635,-0.2649,-0.27,-0.2694,-0.2725,-0.2717,-0.2706,-0.2687,-0.2677,-0.2662,-0.2642,-0.2587,-0.2625,-0.2624,-0.2571,-0.2515,-0.2427,-0.2409,-0.2601,-0.26,-0.2599,-0.2481,0,-0.2541,-0.2615,-0.264,-0.2661,-0.2673,-0.2674,-0.269,-0.2714,-0.272,-0.2723,-0.2704,-0.2695,-0.2689,-0.2658,-0.2642,-0.2615,-0.2567,-0.2616,-0.2532,-0.2529,-0.2448,-0.2398,-0.2201,-0.2073,-0.2473,-0.2471,-0.247,0,-0.2649,-0.2657,-0.2657,-0.2651,-0.2667,-0.2648,-0.2627,-0.2684,-0.2682,-0.2684,-0.2664,-0.267,-0.2632,-0.2628,-0.2568,-0.2597,-0.2535,-0.2514,-0.251,-0.2418,-0.2425,-0.2147,-0.2042,-0.2456,-0.2457,-0.2458,-0.2459,0,-0.2644,-0.2673,-0.2634,-0.2626,-0.2631,-0.2565,-0.2592,-0.2596,-0.2641,-0.2619,-0.2619,-0.2616,-0.2577,-0.2547,-0.2494,-0.252,-0.2423,-0.2461,-0.2318,-0.2311,-0.212,-0.2097,-0.2381,-0.2381,-0.2381,-0.2382,-0.2382,0,-0.2684,-0.2656,-0.2562,-0.2535,-0.2443,-0.2491,-0.2479,-0.2464,-0.2516,-0.2549,-0.2563,-0.2553,-0.2551,-0.2513,-0.2476,-0.2358,-0.2399,-0.2285,-0.2268,-0.2114,-0.2094,-0.242,-0.2426,-0.2377,-0.2378,-0.2379,-0.238,0,-0.2641,-0.2611,-0.2549,-0.2476,-0.2397,-0.2328,-0.2378,-0.2436,-0.2448,-0.2467,-0.2451,-0.2478,-0.2403,-0.2393,-0.2324,-0.2298,-0.2224,-0.2158,-0.1961,-0.1923,-0.2127,-0.2135,-0.1996,-0.1992,-0.1988,-0.1985,-0.1983,0,-0.262,-0.2556,-0.2437,-0.2368,-0.2271,-0.2217,-0.221,-0.2298,-0.2374,-0.2416,-0.2404,-0.2338,-0.2282,-0.2164,-0.2068,-0.1955,-0.2059,-0.1734,-0.1752,-0.2086,-0.2085,-0.2099,-0.2111,-0.1491,-0.1485,-0.148,-0.1476,0,-0.2529,-0.2464,-0.2402,-0.2233,-0.2126,-0.2176,-0.2156,-0.2187,-0.232,-0.2323,-0.2291,-0.2236,-0.2074,-0.189,-0.1738,-0.1643,-0.1753,-0.1625,-0.1997,-0.1637,-0.1606,-0.1607,-0.1636,-0.1429,-0.1434,-0.1437,-0.144,-0.1442,-0.2406,-0.2336,-0.2221,-0.2054,-0.2029,-0.2045,-0.2042,-0.2113,-0.214,-0.2083,-0.2142,-0.1964,-0.1844,-0.1507,-0.1394,-0.1274,-0.1409,-0.1354,-0.1371,-0.1394,-0.1374,-0.1341,-0.1108,-0.1111,-0.1113,-0.1115,-0.1117,0,-0.2253,-0.2175,-0.2073,-0.1929,-0.1958,-0.1925,-0.1956,-0.1983,-0.1934,-0.1863,-0.1812,-0.1486,-0.1321,-0.1196,-0.0968,-0.0928,-0.0908,-0.0857,-0.0875,-0.0918,-0.0957,-0.0919,-0.053,-0.0529,-0.0528,-0.0527,0,0,-0.2152,-0.204,-0.1985,-0.1834,-0.1771,-0.1706,-0.1696,-0.1683,-0.163,-0.1433,-0.1268,-0.1281,-0.1187,-0.0907,-0.0803,-0.0672,-0.0783,-0.0579,-0.1038,-0.1103,-0.1143,-0.1212,-0.1197,0,0,0,0,0]},{"header":{"parameterUnit":"m.s-1","parameterCategory":2,"la1":30.2991,"la2":30.254,"lo1":-89.0895,"lo2":-89.0444,"dy":0.0017,"dx":0.0017,"nx":28,"ny":28,"refTime":"2026-02-03T03:00:00:Z","depth":"2","parameterNumber":3,"parameterNumberName":"V-component_of_CURRENTS"},"data":[0,0,0,0,0,0,0,0,0,0,0,0,0,0,0,0,0,0,0,0,0,0,0,0,0,0,0,0,0,0,0,0,0,0,0,0,0,0,0,0,0,0,0,0,0,0,0,0,0,0,0,0,0,0,0,0,0,0,0.004,0.0042,0,0.0154,0.0155,0.0157,0.0171,0.017,0.0169,0.0168,0.0264,0.0267,0.0271,0,0,0,0,0,0,0,0,0,0,0,0,0,-0.0077,-0.0076,0.004,0.0042,0.0043,0.0154,0.0155,0.0157,0.0171,0.017,0.0169,0.0168,0.0263,0.0267,0.0271,0,0,0,0,0,0,0,0,0,0,0,0,0,-0.0003,-0.0076,0.004,0.0065,0.0068,0.0154,0.0156,0.0157,0.0172,0.017,0.0169,0.0167,0.0261,0.0266,0.0271,0.0333,0,0,0.0287,0.0289,0,0,0,0,0,0,0,0,-0.0007,0.0001,0.006,0.0063,0.0067,0.0148,0.0149,0.0215,0.0172,0.0131,0.0168,0.0167,0.0225,0.0233,0.0256,0.0337,0.0341,0.0288,0.0291,0.0293,0.0294,0,0,0,0,0,0,0,-0.0012,-0.0003,0.0084,0.0061,0.0066,0.0101,0.0108,0.0162,0.0184,0.0135,0.0136,0.0151,0.0227,0.0251,0.0259,0.0343,0.0288,0.0292,0.0295,0.0297,0.0427,0.0427,0,0,0,0,0,0,-0.0026,-0.0008,0.008,0.0088,0.0027,0.0103,0.0112,0.0123,0.0184,0.0192,0.0153,0.0152,0.0243,0.0253,0.0262,0.0285,0.0293,0.0298,0.0301,0.0426,0.0427,0.0427,0,0,0,0,0,0,-0.0029,-0.002,0.0076,0.0044,0.0058,0.0106,0.0118,0.0126,0.0125,0.0198,0.0205,0.0141,0.0243,0.0255,0.0301,0.029,0.03,0.0305,0.0426,0.0427,0.0427,0.0364,0,0,0,0,0,0,-0.0033,-0.0022,-0.0037,0.0042,0.006,0.0108,0.012,0.0129,0.0139,0.0138,0.0191,0.02,0.0242,0.0293,0.0306,0.0297,0.0309,0.0426,0.0426,0.0427,0.0366,0.0362,0.036,0,0,0,0,0,-0.0038,-0.0068,-0.0039,-0.0029,0.0042,0.0108,0.0119,0.0149,0.0139,0.0141,0.0182,0.0197,0.0306,0.0299,0.0314,0.0306,0.0425,0.0426,0.0427,0.0367,0.0363,0.036,0,0,0,0,0,0,-0.0125,-0.0066,-0.0034,-0.0042,0.0027,0.011,0.0097,0.0134,0.0168,0.0153,0.0214,0.0228,0.0258,0.0298,0.0288,0.0346,0.0363,0.0367,0.0313,0.0309,0.0306,0.0306,0.0313,0,0,0,0,0,-0.0147,-0.016,-0.0067,-0.0072,-0.005,0.0024,0.0045,0.008,0.0132,0.0143,0.0192,0.0236,0.0281,0.0304,0.035,0.0393,0.0434,0.0395,0.0392,0.0389,0.04,0.0442,0.0443,0.043,0.043,0.043,0,0,-0.0178,-0.015,-0.0154,-0.0092,-0.005,-0.0004,0.003,0.0055,0.0103,0.0151,0.0195,0.0225,0.0288,0.033,0.0347,0.0358,0.0416,0.039,0.0387,0.04,0.0443,0.0444,0.0445,0.043,0.043,0.043,0,0,-0.0226,-0.0224,-0.0233,-0.0187,-0.0123,-0.0063,-0.006,0.0026,0.0059,0.0127,0.016,0.019,0.027,0.0314,0.0346,0.0358,0.0393,0.0356,0.0348,0.0387,0.0389,0.039,0.0448,0.0456,0.036,0.0359,0.0359,0,-0.0256,-0.025,-0.0221,-0.0203,-0.0182,-0.0093,-0.0072,-0.0002,0.0093,0.013,0.0128,0.0239,0.0269,0.0337,0.0327,0.035,0.0382,0.0352,0.0382,0.0384,0.0387,0.0446,0.0455,0.0357,0.0357,0.0357,0.0357,0,-0.028,-0.0278,-0.0288,-0.0232,-0.0209,-0.0182,-0.0081,-0.0032,0.0014,0.0096,0.0164,0.0222,0.0282,0.029,0.031,0.0344,0.0364,0.0365,0.0386,0.0384,0.0447,0.0457,0.0352,0.0353,0.0354,0.0355,0,0,-0.0327,-0.0302,-0.0304,-0.0289,-0.0229,-0.0197,-0.0137,-0.0034,0.0019,0.0109,0.0172,0.0235,0.0257,0.0294,0.0321,0.0356,0.0384,0.0355,0.0359,0.0404,0.0483,0.0517,0.0532,0.0378,0.038,0.0381,0.052,0,-0.0337,-0.0318,-0.0314,-0.0292,-0.0274,-0.0215,-0.0163,-0.0072,0.0017,0.0108,0.0193,0.025,0.0268,0.0267,0.0311,0.0376,0.0407,0.0347,0.0487,0.0492,0.0514,0.0544,0.0471,0.059,0.053,0.0532,0.0533,0,-0.0356,-0.0343,-0.0332,-0.0316,-0.0308,-0.0286,-0.0212,-0.0152,-0.0005,0.0048,0.0135,0.0214,0.0299,0.0283,0.0427,0.0384,0.0415,0.0466,0.0472,0.0536,0.0545,0.0583,0.0612,0.0551,0.055,0.0548,0.0547,0,-0.0397,-0.0367,-0.0364,-0.0355,-0.0306,-0.0307,-0.0283,-0.0174,-0.0121,0.0001,0.0049,0.0189,0.0244,0.0332,0.0447,0.0423,0.0603,0.0587,0.0661,0.0665,0.0651,0.0652,0.0651,0.0651,0.0651,0.065,0.065,0,-0.0424,-0.0427,-0.038,-0.0382,-0.0388,-0.0359,-0.0339,-0.0289,-0.0196,-0.0134,-0.0005,0.0085,0.0247,0.0388,0.0465,0.0625,0.0622,0.068,0.0706,0.0629,0.0626,0.0625,0.062,0.0656,0.0655,0.0653,0.0653,0,-0.0489,-0.0448,-0.0449,-0.0413,-0.0416,-0.0432,-0.0418,-0.0376,-0.0297,-0.0217,-0.0194,0.002,0.0197,0.038,0.055,0.0651,0.0785,0.0815,0.073,0.0744,0.0818,0.0808,0.0942,0.0945,0.0947,0.0948,0.095,0,-0.0519,-0.0517,-0.0497,-0.0511,-0.0513,-0.0518,-0.0519,-0.0457,-0.0407,-0.0245,-0.0202,-0.0003,0.0184,0.0507,0.068,0.0877,0.0826,0.09,0.084,0.0837,0.0849,0.0836,0.0824,0.0801,0.0801,0.0801,0.0801,0,-0.0585,-0.0573,-0.057,-0.059,-0.0608,-0.061,-0.0602,-0.0575,-0.0477,-0.0356,-0.0168,-0.0002,0.0302,0.0547,0.0786,0.0869,0.0878,0.091,0.0939,0.0735,0.0714,0.0722,0.0713,0.0802,0.0802,0.0802,0.0802,0.0802,-0.0637,-0.065,-0.0638,-0.0667,-0.068,-0.0688,-0.0681,-0.0611,-0.051,-0.037,-0.0225,0.002,0.0219,0.0588,0.0731,0.0889,0.0939,0.093,0.0926,0.0922,0.0877,0.086,0.0969,0.097,0.097,0.0971,0.0972,0,-0.0685,-0.069,-0.0718,-0.0733,-0.076,-0.0747,-0.0711,-0.066,-0.0521,-0.0408,-0.025,-0.0055,0.022,0.0448,0.074,0.0902,0.0844,0.0855,0.075,0.0751,0.0752,0.0692,0.0739,0.0738,0.0738,0.0737,0,0,-0.0709,-0.0742,-0.0749,-0.0797,-0.0805,-0.0794,-0.0765,-0.0659,-0.0543,-0.0406,-0.025,-0.0168,0.0237,0.0305,0.0485,0.0656,0.0634,0.0626,0.0807,0.0662,0.0658,0.0806,0.072,0,0,0,0,0]}],[{"header":{"parameterUnit":"m.s-1","parameterCategory":2,"la1":30.2991,"la2":30.254,"lo1":-89.0895,"lo2":-89.0444,"dy":0.0017,"dx":0.0017,"nx":28,"ny":28,"refTime":"2026-02-03T03:00:00:Z","depth":"4","parameterNumber":2,"parameterNumberName":"U-component_of_CURRENTS"},"data":[0,0,0,0,0,0,0,0,0,0,0,0,0,0,0,0,0,0,0,0,0,0,0,0,0,0,0,0,0,0,0,0,0,0,0,0,0,0,0,0,0,0,0,0,0,0,0,0,0,0,0,0,0,0,0,0,0,0,-0.112,-0.1121,0,-0.1172,-0.1173,-0.1173,-0.122,-0.1221,-0.1222,-0.1222,-0.1319,-0.1321,-0.1322,0,0,0,0,0,0,0,0,0,0,0,0,0,-0.1043,-0.1044,-0.112,-0.1121,-0.1122,-0.1172,-0.1173,-0.1173,-0.122,-0.1221,-0.1222,-0.1223,-0.1318,-0.132,-0.1322,0,0,0,0,0,0,0,0,0,0,0,0,0,-0.1081,-0.1045,-0.112,-0.1153,-0.1157,-0.1172,-0.1173,-0.1173,-0.122,-0.1221,-0.1222,-0.1223,-0.1317,-0.132,-0.1323,-0.1315,0,0,-0.1331,-0.1332,0,0,0,0,0,0,0,0,-0.1079,-0.1084,-0.1148,-0.1151,-0.1155,-0.1193,-0.1181,-0.1224,-0.1219,-0.1193,-0.1222,-0.1224,-0.1282,-0.1288,-0.129,-0.1319,-0.1323,-0.1331,-0.1333,-0.1334,-0.1335,0,0,0,0,0,0,0,-0.1077,-0.1082,-0.1138,-0.1149,-0.1153,-0.116,-0.1167,-0.1189,-0.1229,-0.1195,-0.12,-0.1209,-0.1284,-0.1287,-0.1293,-0.1325,-0.1331,-0.1334,-0.1335,-0.1336,-0.1436,-0.1437,0,0,0,0,0,0,-0.1076,-0.1079,-0.1136,-0.114,-0.1123,-0.1161,-0.1168,-0.1178,-0.1228,-0.1237,-0.1208,-0.1212,-0.1282,-0.129,-0.1296,-0.1367,-0.1334,-0.1337,-0.1338,-0.1435,-0.1437,-0.1438,0,0,0,0,0,0,-0.1074,-0.108,-0.1134,-0.1113,-0.1121,-0.1161,-0.1171,-0.1178,-0.1216,-0.1237,-0.1247,-0.1244,-0.1283,-0.1293,-0.1339,-0.1368,-0.1338,-0.134,-0.1434,-0.1436,-0.1437,-0.1458,0,0,0,0,0,0,-0.1071,-0.1079,-0.1093,-0.1113,-0.1122,-0.1172,-0.1171,-0.1178,-0.122,-0.1225,-0.1271,-0.1279,-0.1285,-0.1335,-0.1341,-0.1371,-0.1342,-0.1433,-0.1435,-0.1437,-0.1456,-0.146,-0.1464,0,0,0,0,0,-0.1068,-0.1088,-0.1093,-0.1101,-0.1138,-0.1173,-0.1179,-0.1209,-0.1221,-0.1246,-0.1268,-0.1279,-0.1352,-0.1337,-0.1345,-0.1377,-0.1432,-0.1434,-0.1436,-0.1454,-0.1459,-0.1464,0,0,0,0,0,0,-0.1059,-0.1095,-0.1102,-0.113,-0.1161,-0.1183,-0.1205,-0.1226,-0.1262,-0.1271,-0.1289,-0.1299,-0.1355,-0.136,-0.1343,-0.1411,-0.1395,-0.1399,-0.1406,-0.1411,-0.1415,-0.1434,-0.1345,0,0,0,0,0,-0.1061,-0.1091,-0.1119,-0.1145,-0.1157,-0.1184,-0.1205,-0.1229,-0.1258,-0.1277,-0.1307,-0.1335,-0.1363,-0.1384,-0.1411,-0.1443,-0.1448,-0.1469,-0.1473,-0.1476,-0.1497,-0.1526,-0.1534,-0.1445,-0.1445,-0.1445,0,0,-0.106,-0.1089,-0.1102,-0.1146,-0.1164,-0.1194,-0.12,-0.1242,-0.1272,-0.1281,-0.1334,-0.1358,-0.1377,-0.1416,-0.1441,-0.1428,-0.1499,-0.1479,-0.1482,-0.1502,-0.1529,-0.1538,-0.1545,-0.1447,-0.1447,-0.1446,0,0,-0.1074,-0.1099,-0.1124,-0.1153,-0.1198,-0.122,-0.1241,-0.1281,-0.1304,-0.1351,-0.1364,-0.141,-0.145,-0.147,-0.1482,-0.1525,-0.1524,-0.1533,-0.1563,-0.1589,-0.1597,-0.1604,-0.1594,-0.16,-0.1527,-0.1527,-0.1527,0,-0.1077,-0.1106,-0.1138,-0.117,-0.1196,-0.1236,-0.1266,-0.1293,-0.1348,-0.1362,-0.1378,-0.1443,-0.1478,-0.1509,-0.1537,-0.1537,-0.1536,-0.154,-0.1594,-0.1601,-0.1608,-0.1597,-0.1603,-0.1528,-0.1528,-0.1528,-0.1528,0,-0.1092,-0.1129,-0.1147,-0.1201,-0.1237,-0.1272,-0.1312,-0.1352,-0.1388,-0.1409,-0.1462,-0.1496,-0.1533,-0.1553,-0.1568,-0.1626,-0.1603,-0.1599,-0.1581,-0.1618,-0.1603,-0.161,-0.153,-0.153,-0.1529,-0.1529,0,0,-0.1075,-0.1143,-0.1156,-0.1174,-0.1257,-0.1279,-0.1338,-0.1384,-0.1413,-0.1463,-0.1495,-0.1562,-0.1579,-0.1596,-0.1611,-0.1652,-0.1707,-0.1657,-0.1658,-0.1644,-0.1741,-0.1571,-0.1561,-0.1709,-0.1711,-0.1713,-0.1701,0,-0.1081,-0.1128,-0.1177,-0.1229,-0.1248,-0.131,-0.1355,-0.1407,-0.1455,-0.1497,-0.1527,-0.1575,-0.1588,-0.1619,-0.1657,-0.1714,-0.173,-0.1709,-0.1711,-0.1711,-0.1553,-0.1565,-0.1719,-0.1705,-0.1707,-0.1708,-0.1708,0,-0.1076,-0.1113,-0.1159,-0.1223,-0.1238,-0.1285,-0.1358,-0.1406,-0.1474,-0.1507,-0.1551,-0.1584,-0.1656,-0.1664,-0.1739,-0.1724,-0.1742,-0.1769,-0.1768,-0.1613,-0.1553,-0.1668,-0.1719,-0.1719,-0.1718,-0.1717,-0.1716,0,-0.1023,-0.1097,-0.1131,-0.1155,-0.124,-0.1275,-0.1326,-0.1407,-0.1438,-0.1525,-0.1553,-0.162,-0.1657,-0.171,-0.1747,-0.1769,-0.1802,-0.1828,-0.167,-0.1657,-0.1806,-0.1799,-0.1867,-0.1867,-0.1867,-0.1867,-0.1867,0,-0.1,-0.1029,-0.1106,-0.1123,-0.1158,-0.1237,-0.1287,-0.1347,-0.143,-0.1447,-0.1547,-0.155,-0.1682,-0.1699,-0.1742,-0.1692,-0.178,-0.1678,-0.1648,-0.1809,-0.1804,-0.1808,-0.1801,-0.1866,-0.1866,-0.1866,-0.1867,0,-0.0943,-0.0996,-0.1033,-0.1115,-0.1134,-0.1164,-0.125,-0.1278,-0.1372,-0.1404,-0.1435,-0.1523,-0.1554,-0.1611,-0.1692,-0.1652,-0.1654,-0.1599,-0.1729,-0.1706,-0.1502,-0.1497,-0.1474,-0.1468,-0.1463,-0.1459,-0.1455,0,-0.0908,-0.0923,-0.1004,-0.1018,-0.106,-0.1108,-0.1134,-0.1236,-0.1264,-0.1344,-0.1336,-0.1399,-0.1435,-0.1385,-0.1479,-0.1501,-0.1487,-0.1471,-0.1545,-0.1492,-0.1466,-0.1468,-0.147,-0.1447,-0.1446,-0.1444,-0.1443,0,-0.0842,-0.0889,-0.0927,-0.0952,-0.0982,-0.0998,-0.1041,-0.1049,-0.1147,-0.1231,-0.121,-0.1228,-0.1229,-0.1289,-0.1279,-0.1302,-0.1495,-0.1419,-0.1432,-0.1502,-0.1459,-0.1439,-0.1446,-0.1426,-0.1428,-0.143,-0.1431,0,-0.0798,-0.0805,-0.0855,-0.0875,-0.0891,-0.0872,-0.0917,-0.093,-0.0968,-0.1071,-0.1041,-0.1102,-0.1184,-0.1176,-0.1168,-0.1173,-0.1207,-0.1208,-0.1233,-0.1253,-0.119,-0.1103,-0.0932,0,0,0,0,0,-0.0737,-0.0739,-0.0756,-0.0763,-0.0773,-0.0779,-0.0837,-0.0892,-0.0974,-0.0924,-0.0989,-0.0981,-0.0991,-0.1026,-0.0999,-0.11,-0.122,-0.1064,-0.1236,-0.1328,-0.1348,-0.1295,0,0,0,0,0,0,-0.0699,-0.0717,-0.0732,-0.0659,-0.0632,-0.0626,-0.0661,-0.073,-0.0719,-0.0813,-0.0827,-0.0897,-0.0931,-0.0977,-0.0963,-0.0977,-0.1063,-0.1113,-0.111,-0.1317,-0.1335,-0.1351,-0.1304,0,0,0,0,0]},{"header":{"parameterUnit":"m.s-1","parameterCategory":2,"la1":30.2991,"la2":30.254,"lo1":-89.0895,"lo2":-89.0444,"dy":0.0017,"dx":0.0017,"nx":28,"ny":28,"refTime":"2026-02-03T03:00:00:Z","depth":"4","parameterNumber":3,"parameterNumberName":"V-component_of_CURRENTS"},"data":[0,0,0,0,0,0,0,0,0,0,0,0,0,0,0,0,0,0,0,0,0,0,0,0,0,0,0,0,0,0,0,0,0,0,0,0,0,0,0,0,0,0,0,0,0,0,0,0,0,0,0,0,0,0,0,0,0,0,-0.0211,-0.021,0,-0.0185,-0.0185,-0.0184,-0.0158,-0.0158,-0.0158,-0.0157,-0.0119,-0.0118,-0.0118,0,0,0,0,0,0,0,0,0,0,0,0,0,-0.0216,-0.0216,-0.0211,-0.021,-0.021,-0.0185,-0.0185,-0.0184,-0.0158,-0.0158,-0.0157,-0.0157,-0.0119,-0.0118,-0.0118,0,0,0,0,0,0,0,0,0,0,0,0,0,-0.0205,-0.0216,-0.0211,-0.0193,-0.0191,-0.0185,-0.0185,-0.0184,-0.0159,-0.0158,-0.0157,-0.0157,-0.0119,-0.0118,-0.0117,-0.0125,0,0,-0.0115,-0.0114,0,0,0,0,0,0,0,0,-0.0206,-0.0205,-0.0196,-0.0194,-0.0192,-0.0173,-0.0172,-0.0164,-0.0159,-0.0172,-0.0157,-0.0156,-0.0136,-0.0133,-0.0132,-0.0123,-0.0122,-0.0115,-0.0114,-0.0114,-0.0113,0,0,0,0,0,0,0,-0.0207,-0.0206,-0.0202,-0.0196,-0.0193,-0.0179,-0.0177,-0.0171,-0.0159,-0.0171,-0.0169,-0.0164,-0.0135,-0.0133,-0.0131,-0.0121,-0.0115,-0.0114,-0.0113,-0.0113,-0.0116,-0.0117,0,0,0,0,0,0,-0.021,-0.0207,-0.0202,-0.0201,-0.0196,-0.0179,-0.0177,-0.0181,-0.0159,-0.0155,-0.0165,-0.0163,-0.0135,-0.0132,-0.0129,-0.0147,-0.0114,-0.0113,-0.0112,-0.0115,-0.0116,-0.0117,0,0,0,0,0,0,-0.021,-0.021,-0.0203,-0.0202,-0.02,-0.018,-0.0184,-0.0181,-0.0175,-0.0154,-0.015,-0.0162,-0.0134,-0.013,-0.0134,-0.0145,-0.0112,-0.0112,-0.0115,-0.0116,-0.0117,-0.0177,0,0,0,0,0,0,-0.0211,-0.0211,-0.022,-0.0202,-0.02,-0.0207,-0.0185,-0.0181,-0.0173,-0.017,-0.015,-0.0146,-0.0133,-0.0135,-0.0133,-0.0143,-0.0111,-0.0114,-0.0115,-0.0116,-0.0174,-0.018,-0.0185,0,0,0,0,0,-0.0211,-0.0221,-0.0221,-0.022,-0.0212,-0.0208,-0.0206,-0.0189,-0.0173,-0.018,-0.0169,-0.0147,-0.014,-0.0136,-0.0132,-0.0143,-0.0113,-0.0115,-0.0116,-0.0172,-0.0179,-0.0184,0,0,0,0,0,0,-0.0223,-0.0219,-0.0218,-0.0226,-0.0223,-0.0203,-0.0207,-0.0191,-0.0187,-0.0182,-0.016,-0.0157,-0.0159,-0.0145,-0.014,-0.0146,-0.0121,-0.0122,-0.0164,-0.017,-0.0176,-0.0195,-0.011,0,0,0,0,0,-0.0233,-0.0242,-0.0234,-0.0241,-0.0243,-0.0226,-0.0222,-0.021,-0.0199,-0.0196,-0.0186,-0.0173,-0.0164,-0.0163,-0.0153,-0.0163,-0.0143,-0.0165,-0.017,-0.0175,-0.0189,-0.0165,-0.0169,-0.0122,-0.0122,-0.0122,0,0,-0.0239,-0.0237,-0.0242,-0.0245,-0.0241,-0.0259,-0.0223,-0.0219,-0.0233,-0.0193,-0.0215,-0.019,-0.0169,-0.0179,-0.0179,-0.0169,-0.0179,-0.0177,-0.0181,-0.0192,-0.0167,-0.0171,-0.0175,-0.0123,-0.0122,-0.0122,0,0,-0.0257,-0.0257,-0.0276,-0.0281,-0.0279,-0.0275,-0.0275,-0.0265,-0.0263,-0.0274,-0.0247,-0.0238,-0.0229,-0.0222,-0.0214,-0.0244,-0.0204,-0.023,-0.0278,-0.0255,-0.0259,-0.0262,-0.0246,-0.0247,-0.0237,-0.0237,-0.0237,0,-0.0267,-0.0289,-0.028,-0.0303,-0.0312,-0.0288,-0.0313,-0.0313,-0.0305,-0.031,-0.029,-0.028,-0.0255,-0.0269,-0.0273,-0.0257,-0.0235,-0.0257,-0.0262,-0.0265,-0.0267,-0.025,-0.025,-0.024,-0.024,-0.0239,-0.0239,0,-0.0306,-0.0324,-0.0334,-0.0364,-0.0376,-0.0386,-0.039,-0.04,-0.039,-0.0385,-0.0392,-0.0364,-0.036,-0.0342,-0.0314,-0.0319,-0.0296,-0.0267,-0.0248,-0.0275,-0.0256,-0.0255,-0.0244,-0.0243,-0.0242,-0.0242,0,0,-0.033,-0.0357,-0.0365,-0.0388,-0.0406,-0.042,-0.0452,-0.0473,-0.0494,-0.0484,-0.0511,-0.0483,-0.046,-0.0449,-0.0413,-0.0387,-0.0373,-0.0335,-0.0332,-0.0323,-0.0322,-0.0218,-0.0208,-0.0337,-0.0338,-0.0338,-0.0304,0,-0.0367,-0.0415,-0.0423,-0.0477,-0.0502,-0.0503,-0.0541,-0.0555,-0.0556,-0.0579,-0.0549,-0.0556,-0.0505,-0.0497,-0.0469,-0.0392,-0.0374,-0.0385,-0.0294,-0.0292,-0.0199,-0.0204,-0.0338,-0.0303,-0.0303,-0.0303,-0.0303,0,-0.0416,-0.0436,-0.0491,-0.0533,-0.0547,-0.0583,-0.0633,-0.0657,-0.0678,-0.0674,-0.0678,-0.0653,-0.0634,-0.0577,-0.0492,-0.0497,-0.0423,-0.0361,-0.0358,-0.0241,-0.0186,-0.0268,-0.0302,-0.0302,-0.0302,-0.0302,-0.0302,0,-0.0445,-0.0492,-0.0535,-0.055,-0.0595,-0.0628,-0.0656,-0.0688,-0.0712,-0.0735,-0.0745,-0.0729,-0.0708,-0.0629,-0.0498,-0.0496,-0.0386,-0.0369,-0.0219,-0.0211,-0.029,-0.0287,-0.0318,-0.0318,-0.0318,-0.0318,-0.0318,0,-0.0482,-0.052,-0.0553,-0.0579,-0.0641,-0.0662,-0.0727,-0.0748,-0.0781,-0.0805,-0.0794,-0.0794,-0.0711,-0.0638,-0.053,-0.0361,-0.0414,-0.023,-0.0192,-0.0317,-0.0317,-0.029,-0.0287,-0.0317,-0.0317,-0.0317,-0.0317,0,-0.051,-0.0531,-0.0581,-0.0632,-0.0658,-0.0701,-0.0769,-0.0807,-0.0827,-0.0858,-0.0866,-0.0841,-0.0721,-0.062,-0.0477,-0.0382,-0.0244,-0.0173,-0.0321,-0.0291,-0.0089,-0.009,-0.0028,-0.0024,-0.002,-0.0018,-0.0015,0,-0.0525,-0.0552,-0.0619,-0.0656,-0.0684,-0.0747,-0.0794,-0.0831,-0.0852,-0.0866,-0.087,-0.0794,-0.0745,-0.0494,-0.0373,-0.0175,-0.013,-0.0089,-0.0088,-0.0088,-0.0058,-0.0065,-0.007,-0.001,-0.0009,-0.0008,-0.0007,0,-0.0542,-0.0569,-0.0607,-0.0682,-0.0739,-0.0798,-0.0851,-0.0866,-0.0887,-0.091,-0.0851,-0.0747,-0.0603,-0.0442,-0.0275,-0.0134,-0.0137,-0.0053,-0.006,-0.0059,-0.0065,-0.004,-0.005,0.0005,0.0003,0.0002,0.0001,0,-0.0551,-0.0579,-0.0632,-0.0693,-0.0769,-0.082,-0.0852,-0.0855,-0.0872,-0.0862,-0.0835,-0.0711,-0.0654,-0.0416,-0.0265,-0.0107,-0.007,-0.0047,-0.0053,-0.0065,-0.0066,-0.008,0.0017,0,0,0,0,0,-0.0548,-0.0579,-0.0641,-0.0709,-0.0783,-0.0825,-0.0875,-0.0891,-0.0898,-0.0845,-0.0836,-0.0693,-0.0463,-0.0384,-0.0202,-0.0192,-0.0044,0.0025,-0.0022,0.0071,0.0057,0.0075,0,0,0,0,0,0,-0.0551,-0.0603,-0.0629,-0.0701,-0.0752,-0.0829,-0.086,-0.087,-0.0826,-0.0817,-0.0692,-0.0645,-0.0418,-0.056,-0.0199,-0.0154,-0.0158,0.0125,0.0129,0.0078,0.0066,0.0055,0.0068,0,0,0,0,0]}]]